CDT,Max TemperatureF,Mean TemperatureF,Min TemperatureF,Max Dew PointF,MeanDew PointF,Min DewpointF,Max Humidity, Mean Humidity, Min Humidity, Max Sea Level PressureIn, Mean Sea Level PressureIn, Min Sea Level PressureIn, Max VisibilityMiles, Mean VisibilityMiles, Min VisibilityMiles, Max Wind SpeedMPH, Mean Wind SpeedMPH, Max Gust SpeedMPH,PrecipitationIn, CloudCover, Events, WindDirDegrees
2013-3-1,27,15,3,19,14,-1,87,75,60,30.23,30.20,30.13,10,9,2,18,8,23,0.00,5,,22
2013-3-2,29,14,0,11,4,-4,86,70,41,30.24,30.21,30.15,10,10,10,9,2,,0.00,0,,337
2013-3-3,27,12,-2,10,3,-7,83,68,43,30.15,30.11,30.06,10,10,10,7,1,,0.00,0,,36
2013-3-4,32,19,6,24,16,2,82,72,61,30.10,30.05,29.99,10,10,7,14,4,18,0.00,5,,96
2013-3-5,30,28,26,28,26,22,96,87,79,30.10,29.96,29.88,10,5,0,18,10,22,0.05,8,,33
2013-3-6,33,29,22,24,22,16,81,74,67,30.31,30.25,30.11,10,10,10,15,11,18,0.00,8,,323
2013-3-7,33,17,1,20,10,-4,89,75,53,30.40,30.37,30.31,10,8,0,6,2,,0.00,1,,26
2013-3-8,38,21,4,29,17,0,95,73,55,30.43,30.37,30.24,10,7,0,15,3,20,0.00,2,,165
2013-3-9,41,36,32,37,31,24,95,79,63,30.24,29.99,29.77,10,8,3,20,10,25,0.22,7,,155
2013-3-10,41,38,34,40,37,34,100,97,91,29.79,29.71,29.63,10,3,0,21,6,28,0.49,8,,53
2013-3-11,34,32,31,34,31,24,99,93,74,29.76,29.62,29.56,10,7,1,17,8,22,0.00,8,,320
2013-3-12,33,29,25,28,22,17,93,76,59,30.01,29.87,29.76,10,8,1,18,11,25,0.00,8,,285
2013-3-13,33,26,19,20,10,2,79,54,27,30.30,30.22,30.02,10,10,4,17,11,21,0.00,1,,307
2013-3-14,35,24,14,28,20,11,93,74,52,30.30,30.19,30.04,10,9,1,13,3,,0.00,3,,203
2013-3-15,35,32,28,33,30,26,96,91,78,30.03,29.89,29.80,10,6,2,14,3,18,0.08,6,,82
2013-3-16,31,26,22,26,21,17,93,75,62,30.14,29.97,29.80,10,10,7,16,10,22,0.00,7,,356
2013-3-17,32,25,18,19,14,7,74,62,53,30.25,30.14,29.98,10,10,10,16,9,20,0.00,1,,61
2013-3-18,34,26,18,30,22,10,93,81,64,29.97,29.72,29.57,10,6,0,28,8,36,0.05,6,,174
2013-3-19,31,22,13,11,7,5,75,57,35,30.05,29.88,29.72,10,9,3,29,21,33,0.00,3,,277
2013-3-20,23,16,9,6,2,-3,60,54,45,30.08,30.04,30.01,10,10,10,20,14,28,0.00,2,,301
2013-3-21,30,20,9,14,7,1,75,58,39,30.05,30.02,29.99,10,10,10,13,6,,0.00,0,,303
2013-3-22,35,24,13,19,12,7,78,60,38,30.06,30.03,30.01,10,10,10,6,1,,0.00,0,,347
2013-3-23,36,28,19,23,19,16,88,66,45,30.12,30.08,30.04,10,10,10,8,2,,0.00,0,,47
2013-3-24,32,31,30,28,25,21,87,77,67,30.06,29.90,29.79,10,8,1,22,10,28,0.00,8,,36
2013-3-25,34,30,27,25,22,18,74,67,61,30.09,29.95,29.83,10,10,10,18,13,23,0.00,7,,347
2013-3-26,40,35,30,27,23,21,72,63,56,30.25,30.19,30.10,10,10,10,13,8,,0.00,8,,317
2013-3-27,42,34,27,26,22,16,81,61,37,30.31,30.29,30.25,10,10,10,12,5,18,0.00,5,,303
2013-3-28,46,36,26,29,20,14,83,55,29,30.35,30.31,30.27,10,10,10,5,1,,0.00,1,,274
2013-3-29,49,37,25,30,22,13,89,59,24,30.32,30.27,30.21,10,10,10,6,1,,0.00,0,,60
2013-3-30,52,42,33,42,31,22,95,62,49,30.21,30.00,29.82,10,10,4,17,7,24,0.00,6,,202
2013-3-31,46,40,33,42,33,19,95,76,52,29.91,29.79,29.73,10,8,3,23,10,29,0.00,5,,288